• MPC Preparation (Info)

  • MPEC 2006-B74 : 2006 BK55

    The following Minor Planet Electronic Circular may be linked-to from your own Web pages, but must not otherwise be redistributed electronically.

    A form allowing access to any MPEC is at the bottom of this page.


    Read MPEC 2006-B73 Read MPEC 2006-B75


    M.P.E.C. 2006-B74                                Issued 2006 Jan. 28, 18:29 UT
    
         The Minor Planet Electronic Circulars contain information on unusual
             minor planets and routine data on comets.  They are published
       on behalf of Commission 20 of the International Astronomical Union by the
              Minor Planet Center, Smithsonian Astrophysical Observatory,
                              Cambridge, MA 02138, U.S.A.
    
                      Supported in part by the Brinson Foundation
                      Supported in part by the TABASGO Foundation
                 Prepared using the Tamkin Foundation Computer Network
    
                                  MPC@CFA.HARVARD.EDU
              URL http://cfa-www.harvard.edu/iau/mpc.html  ISSN 1523-6714
    
                                       2006 BK55
    
    Observations:
         K06B55K* C2006 01 26.45348 12 08 48.01 +00 51 35.3          19.9 V EB074G96
         K06B55K  C2006 01 26.46126 12 08 48.26 +00 51 57.6          19.6 V EB074G96
         K06B55K  C2006 01 26.46904 12 08 48.55 +00 52 19.6          19.4 V EB074G96
         K06B55K  C2006 01 26.47681 12 08 48.76 +00 52 41.9          19.4 V EB074G96
         K06B55K  C2006 01 26.52095 12 08 50.24 +00 54 48.3          19.6 V EB074G96
         K06B55K  C2006 01 26.52752 12 08 50.46 +00 55 07.2          19.6 V EB074G96
         K06B55K  C2006 01 26.53410 12 08 50.67 +00 55 26.0          19.7 V EB074G96
         K06B55K  C2006 01 26.54067 12 08 50.92 +00 55 44.6          19.8 V EB074G96
         K06B55K  C2006 01 27.05078 12 09 09.89 +01 20 13.3                 EB074246
         K06B55K  C2006 01 27.05516 12 09 10.10 +01 20 25.5                 EB074246
         K06B55K  C2006 01 27.05708 12 09 10.11 +01 20 30.0                 EB074246
         K06B55K  C2006 01 27.05932 12 09 10.21 +01 20 36.0                 EB074246
         K06B55K  C2006 01 27.36034 12 09 20.95 +01 35 14.6          19.6 V EB074G96
         K06B55K  C2006 01 27.36088 12 09 20.91 +01 35 16.0          19.3 V EB074G96
         K06B55K  C2006 01 27.36142 12 09 20.95 +01 35 18.0          19.8 V EB074G96
         K06B55K  C2006 01 27.36196 12 09 20.95 +01 35 19.6          19.4 V EB074G96
         K06B55K  C2006 01 27.37463 12 09 21.40 +01 35 57.2          18.9 R EB074854
         K06B55K  C2006 01 27.38042 12 09 21.57 +01 36 13.1          18.9 R EB074854
         K06B55K  C2006 01 28.49367 12 09 58.17 +02 31 10.5          19.5 V EB074G96
         K06B55K  C2006 01 28.50035 12 09 58.35 +02 31 30.4          19.3 V EB074G96
         K06B55K  C2006 01 28.50699 12 09 58.53 +02 31 50.3          19.4 V EB074G96
    
    Observer details:
    246 Klet Observatory-KLENOT.  Observer M. Tichy.  1.06-m KLENOT Telescope
        + CCD.
    854 Sabino Canyon Observatory, Tucson.  Observer J. E. McGaha.  0.36-m f/10.0
        Schmidt-Cassegrain + CCD.
    G96 Mt. Lemmon Survey.  Observers S. M. Larson, E. J. Christensen.  Measurers
        E. C. Beshore, E. J. Christensen, G. J. Garradd, A. D. Grauer, R. E. Hill,
        R. A. Kowalski, S. M. Larson, R. H. McNaught.  1.5-m reflector + CCD.
    
    Orbital elements:
    2006 BK55
    Epoch 2006 Mar. 6.0 TT = JDT 2453800.5                  MPC
    M  61.34599              (2000.0)            P               Q
    n   0.42577453     Peri.  296.65132     -0.05950495     -0.93082357
    a   1.7499122      Node   149.16173     +0.96146991     +0.04368056
    e   0.2028370      Incl.   44.70320     -0.26839296     +0.36284912
    P   2.31           H   17.9           G   0.15           U   8
    Residuals in seconds of arc
    060126 G96  0.2-  0.1-    060126 G96  0.4+  0.1-    060127 G96  0.3-  0.1-
    060126 G96  0.3-  0.0     060127 246  0.4+  1.7+    060127 G96  0.6-  0.1-
    060126 G96  0.2+  0.2-    060127 246  1.4+  1.2+    060127 854  0.2+  0.5+
    060126 G96  0.5-  0.1-    060127 246  0.7+  0.1+    060127 854  0.1+  0.6-
    060126 G96  0.1-  0.0     060127 246  1.1+  0.4-    060128 G96  0.1+  0.1+
    060126 G96  0.0   0.1+    060127 G96  0.2+  0.4-    060128 G96  0.0   0.0
    060126 G96  0.1-  0.1+    060127 G96  0.6-  0.5-    060128 G96  0.1-  0.0
    
    Ephemeris:
    2006 BK55                a,e,i = 1.75, 0.20, 45                  q = 1.3950
    Date    TT    R. A. (2000) Decl.     Delta      r     Elong.  Phase     V
    2006 01 25    12 07.86   -00 16.3    0.764    1.540   122.9    32.5    19.6
    2006 02 04    12 12.49   +08 20.0    0.705    1.564   134.7    26.6    19.3
    2006 02 14    12 12.43   +18 25.8    0.676    1.590   145.2    20.7    19.1
    2006 02 24    12 07.36   +28 48.0    0.682    1.616   149.8    17.9    19.0
    2006 03 06    11 57.78   +37 54.6    0.725    1.643   145.8    19.8    19.3
    2006 03 16    11 45.57   +44 45.5    0.797    1.670   137.2    23.9    19.6
    2006 03 26    11 33.43   +49 13.5    0.891    1.697   127.8    27.7    20.0
    2006 04 05    11 24.02   +51 41.6    0.998    1.723   119.2    30.4    20.4
    2006 04 15    11 19.03   +52 41.2    1.112    1.750   111.5    32.2    20.7
    2006 04 25    11 18.83   +52 39.0    1.229    1.776   104.8    33.2    21.0
    2006 05 05    11 23.01   +51 53.6    1.346    1.802    98.9    33.6    21.2
    2006 05 15    11 30.81   +50 37.8    1.460    1.827    93.5    33.5    21.4
    2006 05 25    11 41.40   +48 59.7    1.571    1.851    88.8    33.2    21.6
    2006 06 04    11 54.13   +47 04.4    1.678    1.874    84.4    32.6    21.8
    2006 06 14    12 08.45   +44 55.7    1.779    1.897    80.5    31.9    21.9
    2006 06 24    12 23.93   +42 36.3    1.875    1.919    76.8    31.1    22.0
    
    Kyle E. Smalley              (C) Copyright 2006 MPC           M.P.E.C. 2006-B74
    

    Read MPEC 2006-B73 Read MPEC 2006-B75


    MPEC number:

    Enter an MPEC number in one of the following forms:

    • 1997-B01 (the full form)
    • J97B01 (the packed version of the full form)
    • B01 (the abbreviated form)